Flag for Russia Weather past 2 weeks in Ulyanovsk, Russia

Now
81 °F

Passing clouds.


Feels Like: 80 °F
Forecast: 69 / 83 °F
Wind: 3 mph from Southeast

Location: Ulyanovsk

Current Time: Jul 28, 2015 at 11:32:10 AM

Latest Report: Jul 28, 2015 at 11:00 AM


Visibility: 5 mi

Pressure: 29.89 "Hg

Humidity: 39%

Dew point: 54 °F

Location of UlyanovskLocation

Historic Weather in Ulyanovsk — Graph

°F

Ulyanovsk temperature yesterday

Maximum temperature yesterday: 77 °F (at 2:00 PM)
Minimum temperature yesterday: 61 °F (at 12:00 AM)
Average temperature yesterday: 70 °F

Past Weeks' High & Low Weather Summary

 TemperatureHumidityPressure
High79 °F (Jul 28, 10:00 AM)100% (Jul 28, 3:00 AM)29.98 "Hg (Jul 28, 3:00 AM)
Low50 °F (Jul 19, 3:00 AM)38% (Jul 14, 2:00 PM)29.45 "Hg (Jul 13, 10:00 AM)
Average66 °F70%29.77 "Hg
* Reported Jul 13 10:00 AM — Jul 28 10:00 AM, Ulyanovsk, Weather by CustomWeather, © 2015

Note: Actual official high and low records may vary slightly from our data, if they occured in-between our weather recording intervals... More about our weather records

Advertising

Ulyanovsk weather history for previous 24 hours

 ConditionsComfort  
Time TempWeatherWind HumidityBarometerVisibility
10:00 AM
Tue, Jul 28
79 °FClear.3 mph45%29.89 "Hg5 mi
9:00 AM77 °FClear.1 mph47%29.89 "Hg5 mi
8:00 AM73 °FClear.1 mph57%29.89 "Hg5 mi
7:00 AM68 °FClear.No wind64%29.92 "Hg5 mi
6:00 AM63 °FClear.No wind77%29.92 "Hg5 mi
5:00 AM55 °FClear.No wind94%29.92 "Hg5 mi
4:00 AM55 °FFog.No wind88%29.89 "Hg3 mi
3:00 AM55 °FClear.No wind100%29.89 "HgN/A
2:00 AM57 °FClear.No wind94%29.89 "HgN/A
1:00 AM57 °FClear.No wind94%29.89 "HgN/A
12:00 AM59 °FClear.No wind88%29.89 "HgN/A
11:00 PM
Mon, Jul 27
61 °FClear.No wind83%29.89 "HgN/A
10:00 PM63 °FClear.No wind77%29.89 "HgN/A
9:00 PM64 °FClear.No wind73%29.89 "HgN/A
8:00 PM70 °FClear.3 mph57%29.89 "Hg5 mi
7:00 PM73 °FClear.3 mph50%29.86 "Hg5 mi
6:00 PM77 °FClear.6 mph44%29.89 "Hg5 mi
5:00 PM77 °FClear.3 mph44%29.89 "Hg5 mi
4:00 PM77 °FClear.6 mph42%29.89 "Hg5 mi
3:00 PM77 °FClear.6 mph44%29.89 "Hg5 mi
2:00 PM77 °FClear.8 mph44%29.89 "Hg5 mi
1:00 PM75 °FPassing clouds.3 mph47%29.89 "Hg5 mi
12:00 PM75 °FPassing clouds.6 mph47%29.92 "Hg5 mi
11:00 AM75 °FPassing clouds.6 mph47%29.92 "Hg5 mi
Weather by CustomWeather, © 2015

See weather overviewHow to use our weather pages